Location: Unspecified
(44.4377°N, 88.0525°W)
Time: 22:35:51
(UTC-05:00)

Okean 3 - Visible Passes

Search period start: 24 June 2017 00:00
Search period end: 04 July 2017 00:00
Orbit: 578 x 602 km, 82.5° (Epoch: 24 June)

Date Brightness Start Highest point End Pass type
(mag) Time Alt. Az. Time Alt. Az. Time Alt. Az.
24 Jun 3.8 02:40:51 10° N 02:45:05 64° E 02:47:40 22° SSE visible
24 Jun 5.6 04:20:23 10° WNW 04:21:44 11° W 04:23:05 10° WSW visible
25 Jun 3.4 02:49:05 10° N 02:53:20 85° W 02:55:30 28° S visible
26 Jun 6.1 01:21:42 10° NE 01:23:54 14° ENE 01:26:06 10° E visible
26 Jun 3.6 02:57:24 10° NNW 03:01:34 56° W 03:03:22 31° SSW visible
27 Jun 5.7 01:29:14 10° NNE 01:32:21 20° ENE 01:34:43 13° ESE visible
27 Jun 4.2 03:05:51 10° NNW 03:09:45 37° W 03:11:14 27° SW visible
28 Jun 5.1 01:37:04 10° NNE 01:40:44 28° ENE 01:42:37 20° ESE visible
28 Jun 4.7 03:14:25 10° NNW 03:17:54 25° W 03:19:09 22° WSW visible
29 Jun 4.4 01:45:04 10° N 01:49:05 40° ENE 01:50:33 30° ESE visible
29 Jun 5.2 03:23:13 10° NW 03:26:00 17° W 03:27:04 16° WSW visible
30 Jun 3.7 01:53:11 10° N 01:57:23 61° E 01:58:30 44° SE visible
30 Jun 5.6 03:32:34 10° WNW 03:34:03 12° W 03:35:01 11° W visible
01 Jul 3.3 02:01:24 10° N 02:05:39 88° W 02:06:28 58° S visible
02 Jul 5.9 00:34:09 10° NE 00:36:12 13° ENE 00:37:55 11° E visible
02 Jul 3.5 02:09:43 10° NNW 02:13:53 58° W 02:14:27 52° SW visible
03 Jul 5.5 00:41:37 10° NNE 00:44:38 19° ENE 00:45:55 17° E visible
03 Jul 4.1 02:18:08 10° NNW 02:22:03 38° W 02:22:27 37° WSW visible
